Home > Weather > Dormagen > Past weeks

Flag for Germany Past Weather in Dormagen, North Rhine-Westphalia, Germany — Yesterday and Last 2 Weeks

Now
68 °F

Clear.


Feels Like: 68 °F
Forecast: 60 / 72 °F
Wind: 6 mph from West

Location: Duesseldorf

Current Time: Aug 28, 2016 at 10:59:22 PM

Latest Report: Aug 28, 2016 at 10:20 PM


Visibility: 10 mi

Pressure: 30.01 "Hg

Humidity: 69%

Dew Point: 57 °F

Location of DormagenLocation

Past Weather in Dormagen — Graph

°F

Dormagen Temperature Yesterday

Maximum temperature yesterday: 91 °F (at 3:50 PM)
Minimum temperature yesterday: 66 °F (at 6:20 AM)
Average temperature yesterday: 78 °F

High & Low Weather Summary for the Past Weeks

 TemperatureHumidityPressure
High91 °F (Aug 25, 3:20 PM)100% (Aug 14, 12:50 AM)30.33 "Hg (Aug 14, 12:50 AM)
Low50 °F (Aug 18, 5:20 AM)26% (Aug 25, 3:20 PM)29.77 "Hg (Aug 18, 2:50 PM)
Average70 °F68%30.04 "Hg
* Reported Aug 13 9:20 PM — Aug 28 9:20 PM, Dormagen, Weather by CustomWeather, © 2016

Note: Actual official high and low records may vary slightly from our data, if they occured in-between our weather recording intervals... More about our weather records

Advertising

Dormagen Weather History for the Previous 24 Hours

Scroll right to see more
 ConditionsComfort  
Time TempWeatherWind HumidityBarometerVisibility
9:20 PM
Sun, Aug 28
72 °FSunny.6 mph57%29.98 "Hg10 mi
8:50 PM72 °FSunny.8 mph57%29.98 "Hg10 mi
8:20 PM73 °FPassing clouds.12 mph53%29.98 "HgN/A
7:50 PM75 °FScattered clouds.12 mph54%29.98 "HgN/A
7:20 PM75 °FScattered clouds.14 mph54%29.95 "HgN/A
6:50 PM77 °FScattered clouds.14 mph54%29.95 "HgN/A
6:20 PM79 °FScattered clouds.13 mph54%29.95 "HgN/A
5:50 PM79 °FScattered clouds.15 mph54%29.95 "HgN/A
5:20 PM79 °FScattered clouds.14 mph58%29.92 "HgN/A
4:50 PM79 °FScattered clouds.15 mph58%29.92 "HgN/A
4:20 PM81 °FScattered clouds.15 mph58%29.92 "HgN/A
3:50 PM82 °FScattered clouds.15 mph55%29.92 "HgN/A
3:20 PM81 °FScattered clouds.16 mph58%29.92 "HgN/A
2:50 PM81 °FScattered clouds.18 mph58%29.92 "HgN/A
2:20 PM81 °FScattered clouds.17 mph62%29.92 "HgN/A
1:50 PM84 °FScattered clouds.20 mph55%29.89 "HgN/A
1:20 PM84 °FSunny.20 mph51%29.89 "Hg10 mi
12:50 PM86 °FSunny.22 mph49%29.89 "Hg10 mi
12:20 PM88 °FSunny.20 mph43%29.86 "Hg10 mi
11:50 AM88 °FSunny.13 mph49%29.86 "Hg10 mi
11:20 AM86 °FPassing clouds.13 mph52%29.89 "HgN/A
10:50 AM84 °FSunny.13 mph51%29.89 "Hg10 mi
10:20 AM82 °FSunny.12 mph55%29.89 "Hg10 mi
9:50 AM79 °FSunny.12 mph61%29.89 "Hg10 mi
9:20 AM77 °FPassing clouds.9 mph65%29.89 "HgN/A
8:50 AM75 °FSunny.12 mph69%29.89 "Hg10 mi
8:20 AM73 °FSunny.13 mph74%29.89 "Hg10 mi
7:50 AM73 °FSunny.12 mph74%29.89 "Hg10 mi
7:20 AM72 °FPassing clouds.5 mph78%29.89 "HgN/A
6:50 AM72 °FClear.12 mph78%29.89 "Hg10 mi
6:20 AM72 °FPassing clouds.8 mph78%29.89 "HgN/A
5:50 AM70 °FPassing clouds.9 mph78%29.89 "HgN/A
5:20 AM70 °FClear.7 mph78%29.89 "Hg10 mi
4:50 AM68 °FClear.7 mph88%29.89 "Hg10 mi
4:20 AM70 °FPassing clouds.3 mph78%29.92 "HgN/A
3:50 AM70 °FClear.3 mph83%29.92 "Hg10 mi
3:20 AM72 °FPartly cloudy.5 mph78%29.92 "HgN/A
2:50 AM72 °FPartly cloudy.8 mph73%29.92 "HgN/A
2:20 AM72 °FPartly cloudy.10 mph78%29.92 "HgN/A
1:50 AM70 °FPartly cloudy.7 mph88%29.92 "HgN/A
1:20 AM68 °FPassing clouds.6 mph88%29.95 "HgN/A
12:50 AM72 °FThundershowers. Passing clouds.14 mph73%29.95 "HgN/A
12:20 AM77 °FThunderstorms. Partly cloudy.30 mph51%29.92 "HgN/A
11:50 PM
Sat, Aug 27
81 °FPassing clouds.12 mph58%29.92 "HgN/A
11:20 PM82 °FPassing clouds.10 mph55%29.92 "HgN/A
10:50 PM77 °FPassing clouds.8 mph74%29.92 "HgN/A
10:20 PM77 °FPassing clouds.7 mph79%29.92 "HgN/A
Weather by CustomWeather, © 2016

See weather overviewHow to use our weather pages